Home > Time Zones > World Clock > Weather > India > Ajmer > Past weeks

Flag for India Weather past 2 weeks in Ajmer, Rajasthan, India

Now
84 °F

Passing clouds.


Feels Like: 91 °F
Forecast: 76 / 95 °F
Wind: 6 mph from West

Location: Jaipur / Sanganer

Current Time: Aug 28, 2015 at 3:04:41 AM

Latest Report: Aug 28, 2015 at 2:00 AM


Visibility: 2 mi

Pressure: 29.68 "Hg

Humidity: 70%

Dew point: 73 °F

Location of AjmerLocation

Historic Weather in Ajmer — Graph

°F

Ajmer temperature yesterday

Maximum temperature yesterday: 97 °F (at 2:00 PM)
Minimum temperature yesterday: 81 °F (at 6:00 AM)
Average temperature yesterday: 89 °F

Past Weeks' High & Low Weather Summary

 TemperatureHumidityPressure
High97 °F (Aug 27, 2:00 PM)100% (Aug 13, 6:00 AM)29.95 "Hg (Aug 13, 6:00 AM)
Low77 °F (Aug 16, 2:00 AM)44% (Aug 27, 2:00 PM)29.62 "Hg (Aug 13, 4:00 PM)
Average85 °F74%29.70 "Hg
* Reported Aug 13 1:00 AM — Aug 28 1:00 AM, Ajmer, Weather by CustomWeather, © 2015

Note: Actual official high and low records may vary slightly from our data, if they occured in-between our weather recording intervals... More about our weather records

Advertising

Ajmer weather history for previous 24 hours

 ConditionsComfort  
Time TempWeatherWind HumidityBarometerVisibility
1:00 AM
Fri, Aug 28
84 °FPassing clouds.5 mph70%29.68 "Hg2 mi
12:00 AM86 °FPassing clouds.3 mph66%29.71 "Hg2 mi
11:00 PM
Thu, Aug 27
86 °FPassing clouds.7 mph62%29.71 "Hg2 mi
10:00 PM88 °FPassing clouds.3 mph59%29.71 "Hg2 mi
7:00 PM91 °FScattered clouds.5 mph56%29.62 "Hg2 mi
6:00 PM93 °FScattered clouds.3 mph49%29.62 "Hg2 mi
5:30 PM93 °FScattered clouds.3 mph49%29.62 "Hg2 mi
5:00 PM95 °FScattered clouds.5 mph50%29.62 "Hg2 mi
4:30 PM95 °FScattered clouds.6 mph50%29.62 "Hg2 mi
4:00 PM93 °FScattered clouds.6 mph53%29.62 "Hg2 mi
3:00 PM95 °FScattered clouds.5 mph50%29.65 "Hg2 mi
2:30 PM95 °FScattered clouds.6 mph50%29.65 "Hg2 mi
2:00 PM97 °FScattered clouds.5 mph44%29.68 "Hg3 mi
1:00 PM95 °FScattered clouds.5 mph50%29.68 "Hg3 mi
12:00 PM95 °FHaze.5 mph50%29.71 "Hg3 mi
11:00 AM90 °FHaze.5 mph52%29.74 "Hg3 mi
10:00 AM88 °FHaze.6 mph59%29.71 "Hg2 mi
8:00 AM82 °FHaze.5 mph70%29.71 "Hg2 mi
7:00 AM81 °FHaze.2 mph79%29.71 "Hg2 mi
6:00 AM81 °FHaze.5 mph79%29.68 "Hg2 mi
3:00 AM82 °FPassing clouds.5 mph74%29.68 "Hg2 mi
Weather by CustomWeather, © 2015

See weather overviewHow to use our weather pages